GKION BGBW-CYYT

Flight info

Callsign GKION
Flight time N/A
Altitude 40000
Route JH DCT H5848 DCT H5649 DCT 5450N DCT H5151/N0366F400 DCT ELSIR DCT MIVAD AVALN5
Aircraft C525/L-SDFGRWY/SB1

Departure

Time N/A
Airport Narsarsuaq Airport (BGBW)

Arrival

Time 2026-04-19 21:14
Airport St. John's International Airport (CYYT)
Time Latitude Longitude Altitude Speed Heading
2026-04-19 20:05 53.55881 -50.18583 39972 ft 392 kts 204°
2026-04-19 20:05 53.53210 -50.19690 39973 ft 392 kts 204°
2026-04-19 20:06 53.47939 -50.21871 39973 ft 392 kts 204°
2026-04-19 20:06 53.42664 -50.24033 39984 ft 391 kts 204°
2026-04-19 20:07 53.37414 -50.26194 39984 ft 391 kts 204°
2026-04-19 20:07 53.32150 -50.28361 39985 ft 391 kts 204°
2026-04-19 20:08 53.26884 -50.30523 39981 ft 390 kts 203°
2026-04-19 20:08 53.21608 -50.32681 39985 ft 389 kts 202°
2026-04-19 20:09 53.16393 -50.34808 39983 ft 389 kts 202°
2026-04-19 20:09 53.11167 -50.36935 39990 ft 388 kts 202°
2026-04-19 20:10 53.05946 -50.39055 39999 ft 387 kts 202°
2026-04-19 20:10 53.00723 -50.41171 40001 ft 387 kts 202°
2026-04-19 20:11 52.95513 -50.43276 39997 ft 387 kts 202°
2026-04-19 20:11 52.90292 -50.45381 39991 ft 387 kts 202°
2026-04-19 20:12 52.85071 -50.47480 40002 ft 386 kts 201°
2026-04-19 20:12 52.79849 -50.49573 40001 ft 386 kts 201°
2026-04-19 20:13 52.74653 -50.51651 40001 ft 386 kts 201°
2026-04-19 20:13 52.69448 -50.53728 40011 ft 385 kts 201°
2026-04-19 20:14 52.64251 -50.55797 40014 ft 385 kts 201°
2026-04-19 20:14 52.59039 -50.57867 40018 ft 385 kts 201°
2026-04-19 20:15 52.54691 -50.59590 40009 ft 385 kts 201°
2026-04-19 20:15 52.48655 -50.61975 40013 ft 385 kts 201°
2026-04-19 20:16 52.43445 -50.64028 40016 ft 385 kts 201°
2026-04-19 20:16 52.38238 -50.66076 40024 ft 386 kts 200°
2026-04-19 20:17 52.33035 -50.68119 40020 ft 386 kts 200°
2026-04-19 20:17 52.27804 -50.70166 40027 ft 387 kts 200°
2026-04-19 20:18 52.22589 -50.72201 40027 ft 388 kts 200°
2026-04-19 20:18 52.17343 -50.74244 40038 ft 388 kts 200°
2026-04-19 20:19 52.12106 -50.76278 40039 ft 389 kts 200°
2026-04-19 20:19 52.06841 -50.78318 40037 ft 389 kts 200°
2026-04-19 20:20 52.01571 -50.80356 40037 ft 390 kts 200°
2026-04-19 20:20 51.96326 -50.82378 40033 ft 390 kts 199°
2026-04-19 20:21 51.91053 -50.84406 40047 ft 390 kts 200°
2026-04-19 20:21 51.85770 -50.86434 40051 ft 390 kts 200°
2026-04-19 20:22 51.80497 -50.88452 40059 ft 390 kts 199°
2026-04-19 20:22 51.75232 -50.90464 40056 ft 391 kts 200°
2026-04-19 20:23 51.69952 -50.92476 40065 ft 391 kts 199°
2026-04-19 20:23 51.64668 -50.94484 40064 ft 391 kts 199°
2026-04-19 20:24 51.59373 -50.96492 40073 ft 391 kts 199°
2026-04-19 20:24 51.54073 -50.98497 40071 ft 392 kts 199°
2026-04-19 20:25 51.48771 -51.00517 40063 ft 391 kts 200°
2026-04-19 20:25 51.43609 -51.03079 40068 ft 388 kts 205°
2026-04-19 20:26 51.38548 -51.05916 40073 ft 388 kts 205°
2026-04-19 20:26 51.33414 -51.08705 40078 ft 389 kts 204°
2026-04-19 20:27 51.28291 -51.11365 40077 ft 390 kts 203°
2026-04-19 20:27 51.23119 -51.14012 40078 ft 390 kts 203°
2026-04-19 20:28 51.17974 -51.16654 40082 ft 390 kts 203°
2026-04-19 20:28 51.12823 -51.19305 40084 ft 390 kts 203°
2026-04-19 20:29 51.07661 -51.21959 40091 ft 390 kts 203°
2026-04-19 20:29 51.02502 -51.24603 40094 ft 390 kts 203°
2026-04-19 20:30 50.94762 -51.28556 40093 ft 390 kts 203°
2026-04-19 20:30 50.89605 -51.31182 40100 ft 390 kts 203°
2026-04-19 20:31 50.84455 -51.33798 40103 ft 390 kts 203°
2026-04-19 20:31 50.79318 -51.36401 40111 ft 390 kts 203°
2026-04-19 20:32 50.74149 -51.39016 40105 ft 390 kts 203°
2026-04-19 20:32 50.69006 -51.41610 40112 ft 390 kts 202°
2026-04-19 20:33 50.63861 -51.44241 40106 ft 388 kts 206°
2026-04-19 20:33 50.61628 -51.46529 40131 ft 377 kts 226°
2026-04-19 20:33 50.59849 -51.49495 40117 ft 374 kts 233°
2026-04-19 20:34 50.56700 -51.55928 40111 ft 373 kts 236°
2026-04-19 20:34 50.53422 -51.62266 40110 ft 374 kts 234°
2026-04-19 20:35 50.50072 -51.68536 40112 ft 375 kts 233°
2026-04-19 20:35 50.46715 -51.74785 40114 ft 376 kts 233°
2026-04-19 20:36 50.43053 -51.80596 40112 ft 381 kts 220°
2026-04-19 20:36 50.40762 -51.82746 39998 ft 388 kts 210°
2026-04-19 20:37 50.35488 -51.85185 39348 ft 407 kts 194°
2026-04-19 20:37 50.32676 -51.85965 39023 ft 410 kts 193°
2026-04-19 20:37 50.29857 -51.86684 38696 ft 412 kts 192°
2026-04-19 20:37 50.27037 -51.87376 38366 ft 412 kts 192°
2026-04-19 20:38 50.24207 -51.88068 38042 ft 411 kts 192°
2026-04-19 20:38 50.21367 -51.88772 37724 ft 411 kts 192°
2026-04-19 20:38 50.18562 -51.89481 37403 ft 411 kts 193°
2026-04-19 20:38 50.15738 -51.90206 37077 ft 411 kts 193°
2026-04-19 20:39 50.12933 -51.90931 36759 ft 410 kts 193°
2026-04-19 20:39 50.10107 -51.91663 36437 ft 410 kts 193°
2026-04-19 20:39 50.07314 -51.92386 36122 ft 410 kts 193°
2026-04-19 20:39 50.04489 -51.93114 35807 ft 411 kts 193°
2026-04-19 20:40 50.01664 -51.93840 35492 ft 411 kts 193°
2026-04-19 20:40 49.98846 -51.94562 35178 ft 411 kts 193°
2026-04-19 20:40 49.96036 -51.95280 34871 ft 411 kts 193°
2026-04-19 20:40 49.93236 -51.95995 34564 ft 412 kts 193°
2026-04-19 20:41 49.90398 -51.96719 34269 ft 412 kts 193°
2026-04-19 20:41 49.87552 -51.97444 33974 ft 410 kts 193°
2026-04-19 20:41 49.84758 -51.98155 33707 ft 408 kts 192°
2026-04-19 20:41 49.81970 -51.98863 33446 ft 406 kts 193°
2026-04-19 20:42 49.79185 -51.99570 33180 ft 404 kts 193°
2026-04-19 20:42 49.76420 -52.00272 32787 ft 404 kts 192°
2026-04-19 20:42 49.73693 -52.00962 32321 ft 398 kts 192°
2026-04-19 20:42 49.70976 -52.01649 31791 ft 395 kts 192°
2026-04-19 20:43 49.68264 -52.02335 31258 ft 392 kts 193°
2026-04-19 20:43 49.65595 -52.03009 30735 ft 389 kts 193°
2026-04-19 20:43 49.62957 -52.03674 30212 ft 387 kts 192°
2026-04-19 20:43 49.60292 -52.04346 29685 ft 385 kts 192°
2026-04-19 20:44 49.57679 -52.05004 29163 ft 383 kts 193°
2026-04-19 20:44 49.55049 -52.05667 28638 ft 381 kts 193°
2026-04-19 20:44 49.52435 -52.06323 28114 ft 380 kts 193°
2026-04-19 20:44 49.49833 -52.06976 27591 ft 378 kts 192°
2026-04-19 20:45 49.47255 -52.07622 27071 ft 376 kts 192°
2026-04-19 20:45 49.44711 -52.08259 26555 ft 374 kts 193°
2026-04-19 20:45 49.42153 -52.08899 26037 ft 372 kts 193°
2026-04-19 20:45 49.39598 -52.09536 25517 ft 371 kts 193°
2026-04-19 20:46 49.37054 -52.10171 24999 ft 369 kts 193°
2026-04-19 20:46 49.34526 -52.10802 24483 ft 367 kts 193°
2026-04-19 20:46 49.32042 -52.11420 24021 ft 365 kts 193°
2026-04-19 20:46 49.29527 -52.12046 23548 ft 364 kts 193°
2026-04-19 20:47 49.27042 -52.12664 23087 ft 362 kts 193°
2026-04-19 20:47 49.24564 -52.13279 22639 ft 361 kts 193°
2026-04-19 20:47 49.22086 -52.13894 22190 ft 359 kts 193°
2026-04-19 20:47 49.19647 -52.14498 21740 ft 358 kts 192°
2026-04-19 20:48 49.17189 -52.15107 21294 ft 356 kts 192°
2026-04-19 20:48 49.14796 -52.15697 20975 ft 350 kts 192°
2026-04-19 20:48 49.12399 -52.16287 20640 ft 346 kts 192°
2026-04-19 20:48 49.10023 -52.16872 20297 ft 342 kts 192°
2026-04-19 20:49 49.07693 -52.17445 19945 ft 337 kts 192°
2026-04-19 20:49 49.05424 -52.18002 19598 ft 333 kts 192°
2026-04-19 20:49 49.03143 -52.18563 19246 ft 329 kts 192°
2026-04-19 20:49 49.00894 -52.19116 18897 ft 326 kts 192°
2026-04-19 20:50 48.98672 -52.19663 18551 ft 324 kts 192°
2026-04-19 20:50 48.96468 -52.20205 18200 ft 320 kts 192°
2026-04-19 20:50 48.94283 -52.20742 17845 ft 314 kts 192°
2026-04-19 20:50 48.92160 -52.21261 17490 ft 308 kts 192°
2026-04-19 20:51 48.90064 -52.21773 17132 ft 304 kts 192°
2026-04-19 20:51 48.87930 -52.22295 16768 ft 300 kts 193°
2026-04-19 20:51 48.85903 -52.22791 16439 ft 296 kts 193°
2026-04-19 20:51 48.83896 -52.23280 16199 ft 289 kts 193°
2026-04-19 20:52 48.81912 -52.23763 15958 ft 286 kts 193°
2026-04-19 20:52 48.79961 -52.24239 15714 ft 283 kts 193°
2026-04-19 20:52 48.78018 -52.24711 15475 ft 281 kts 193°
2026-04-19 20:52 48.76120 -52.25204 15236 ft 279 kts 194°
2026-04-19 20:53 48.74207 -52.25777 14996 ft 277 kts 195°
2026-04-19 20:53 48.72325 -52.26350 14751 ft 276 kts 194°
2026-04-19 20:53 48.70452 -52.26799 14509 ft 275 kts 192°
2026-04-19 20:53 48.68543 -52.27187 14259 ft 274 kts 192°
2026-04-19 20:54 48.66655 -52.27559 14018 ft 273 kts 192°
2026-04-19 20:54 48.64790 -52.27946 13776 ft 272 kts 192°
2026-04-19 20:54 48.62911 -52.28365 13546 ft 271 kts 193°
2026-04-19 20:54 48.61062 -52.28801 13312 ft 270 kts 193°
2026-04-19 20:55 48.59201 -52.29255 13067 ft 270 kts 193°
2026-04-19 20:55 48.57359 -52.29710 12826 ft 269 kts 193°
2026-04-19 20:55 48.55506 -52.30168 12576 ft 269 kts 193°
2026-04-19 20:55 48.53672 -52.30618 12336 ft 269 kts 193°
2026-04-19 20:56 48.51820 -52.31068 12093 ft 269 kts 193°
2026-04-19 20:56 48.49976 -52.31513 11836 ft 269 kts 193°
2026-04-19 20:56 48.48130 -52.31956 11590 ft 269 kts 193°
2026-04-19 20:56 48.46257 -52.32406 11339 ft 269 kts 193°
2026-04-19 20:57 48.44408 -52.32849 11086 ft 269 kts 193°
2026-04-19 20:57 48.42580 -52.33287 10845 ft 269 kts 193°
2026-04-19 20:57 48.40712 -52.33734 10605 ft 269 kts 193°
2026-04-19 20:57 48.38880 -52.34174 10365 ft 269 kts 193°
2026-04-19 20:58 48.37028 -52.34617 10114 ft 269 kts 193°
2026-04-19 20:58 48.35177 -52.35061 9855 ft 269 kts 193°
2026-04-19 20:58 48.33329 -52.35503 9603 ft 269 kts 193°
2026-04-19 20:58 48.31504 -52.35939 9348 ft 269 kts 193°
2026-04-19 20:59 48.29641 -52.36384 9096 ft 268 kts 193°
2026-04-19 20:59 48.27792 -52.36826 8845 ft 268 kts 193°
2026-04-19 20:59 48.25974 -52.37260 8597 ft 268 kts 193°
2026-04-19 20:59 48.24123 -52.37701 8345 ft 268 kts 193°
2026-04-19 21:00 48.22281 -52.38139 8097 ft 268 kts 193°
2026-04-19 21:00 48.20435 -52.38579 7841 ft 268 kts 193°
2026-04-19 21:00 48.18591 -52.39017 7582 ft 268 kts 193°
2026-04-19 21:00 48.16744 -52.39456 7318 ft 268 kts 193°
2026-04-19 21:01 48.14923 -52.39888 7054 ft 263 kts 192°
2026-04-19 21:01 48.13145 -52.40306 6794 ft 257 kts 192°
2026-04-19 21:01 48.11403 -52.40716 6539 ft 251 kts 193°
2026-04-19 21:01 48.09684 -52.41122 6277 ft 247 kts 193°
2026-04-19 21:02 48.08011 -52.41518 6008 ft 244 kts 193°
2026-04-19 21:02 48.06329 -52.41912 5758 ft 241 kts 192°
2026-04-19 21:02 48.04675 -52.42298 5506 ft 239 kts 193°
2026-04-19 21:02 48.03050 -52.42682 5247 ft 237 kts 193°
2026-04-19 21:03 48.01427 -52.43067 4978 ft 235 kts 193°
2026-04-19 21:03 47.99811 -52.43449 4759 ft 232 kts 193°
2026-04-19 21:03 47.98243 -52.43818 4628 ft 228 kts 193°
2026-04-19 21:03 47.96679 -52.44186 4501 ft 226 kts 193°
2026-04-19 21:04 47.95127 -52.44552 4358 ft 223 kts 193°
2026-04-19 21:04 47.93594 -52.44914 4221 ft 222 kts 193°
2026-04-19 21:04 47.92086 -52.45269 4085 ft 220 kts 193°
2026-04-19 21:04 47.90568 -52.45627 3956 ft 219 kts 193°
2026-04-19 21:05 47.89059 -52.45982 3825 ft 218 kts 193°
2026-04-19 21:05 47.87553 -52.46336 3686 ft 218 kts 193°
2026-04-19 21:05 47.86060 -52.46687 3555 ft 217 kts 193°
2026-04-19 21:05 47.84576 -52.47035 3418 ft 217 kts 193°
2026-04-19 21:06 47.83093 -52.47382 3278 ft 214 kts 193°
2026-04-19 21:06 47.81615 -52.47728 3141 ft 212 kts 193°
2026-04-19 21:06 47.80165 -52.48067 3029 ft 209 kts 193°
2026-04-19 21:06 47.78733 -52.48399 3009 ft 204 kts 193°
2026-04-19 21:07 47.77351 -52.48723 3001 ft 200 kts 193°
2026-04-19 21:07 47.75979 -52.49044 3003 ft 197 kts 193°
2026-04-19 21:07 47.74629 -52.49360 2993 ft 194 kts 193°
2026-04-19 21:07 47.73306 -52.49670 3000 ft 191 kts 193°
2026-04-19 21:08 47.71991 -52.49963 2993 ft 190 kts 192°
2026-04-19 21:08 47.70673 -52.50044 2988 ft 191 kts 184°
2026-04-19 21:08 47.69340 -52.49877 2987 ft 190 kts 180°
2026-04-19 21:08 47.68032 -52.49669 2996 ft 189 kts 180°
2026-04-19 21:09 47.66732 -52.49486 3001 ft 187 kts 181°
2026-04-19 21:09 47.65421 -52.49358 2986 ft 184 kts 187°
2026-04-19 21:09 47.64336 -52.50170 3004 ft 178 kts 229°
2026-04-19 21:09 47.63680 -52.51722 2999 ft 179 kts 242°
2026-04-19 21:10 47.63285 -52.53479 3006 ft 182 kts 253°
2026-04-19 21:10 47.63161 -52.55390 2943 ft 189 kts 264°
2026-04-19 21:10 47.63202 -52.57326 2639 ft 190 kts 266°
2026-04-19 21:10 47.63185 -52.59271 2365 ft 183 kts 263°
2026-04-19 21:11 47.63126 -52.61090 2128 ft 174 kts 261°
2026-04-19 21:11 47.63054 -52.62822 2003 ft 148 kts 261°
2026-04-19 21:11 47.62993 -52.64243 1640 ft 126 kts 259°
2026-04-19 21:11 47.62945 -52.65344 1618 ft 91 kts 258°
2026-04-19 21:12 47.62900 -52.66224 1383 ft 82 kts 258°
2026-04-19 21:12 47.62862 -52.66989 1277 ft 69 kts 256°
2026-04-19 21:12 47.62818 -52.67719 1312 ft 78 kts 256°
2026-04-19 21:12 47.62768 -52.68634 1142 ft 95 kts 259°
2026-04-19 21:13 47.62723 -52.69622 1007 ft 97 kts 259°
2026-04-19 21:13 47.62681 -52.70613 870 ft 92 kts 261°
2026-04-19 21:13 47.62659 -52.71555 752 ft 87 kts 262°
2026-04-19 21:13 47.62615 -52.72416 625 ft 85 kts 261°
2026-04-19 21:14 47.62556 -52.73268 512 ft 81 kts 260°
2026-04-19 21:14 47.62516 -52.74096 421 ft 72 kts 259°
2026-04-19 21:14 47.62481 -52.74725 436 ft 50 kts 264°
2026-04-19 21:14 47.62459 -52.75155 446 ft 33 kts 265°
2026-04-19 21:15 47.62431 -52.75424 455 ft 14 kts 249°
2026-04-19 21:15 47.62434 -52.75505 459 ft 5 kts 21°
2026-04-19 21:15 47.62445 -52.75409 455 ft 15 kts 86°
2026-04-19 21:15 47.62458 -52.75188 447 ft 27 kts 86°
2026-04-19 21:16 47.62409 -52.74952 442 ft 23 kts 142°
2026-04-19 21:16 47.62285 -52.74803 440 ft 22 kts 140°
2026-04-19 21:16 47.62174 -52.74659 438 ft 20 kts 139°
2026-04-19 21:16 47.62069 -52.74523 437 ft 20 kts 140°
2026-04-19 21:17 47.61947 -52.74369 434 ft 25 kts 139°
2026-04-19 21:17 47.61803 -52.74184 429 ft 29 kts 138°
2026-04-19 21:17 47.61699 -52.74056 427 ft 7 kts 180°
2026-04-19 21:17 47.61669 -52.74094 428 ft 4 kts 229°
2026-04-19 21:18 47.61642 -52.74140 429 ft 7 kts 228°
2026-04-19 21:18 47.61603 -52.74205 433 ft 9 kts 229°
2026-04-19 21:18 47.61548 -52.74300 436 ft 13 kts 229°
2026-04-19 21:18 47.61466 -52.74324 438 ft 17 kts 115°
2026-04-19 21:19 47.61404 -52.74113 432 ft 25 kts 114°
2026-04-19 21:19 47.61279 -52.73968 428 ft 24 kts 196°
2026-04-19 21:19 47.61123 -52.73958 431 ft 21 kts 178°
2026-04-19 21:19 47.61060 -52.73980 433 ft 4 kts 230°
2026-04-19 21:20 47.61049 -52.74001 434 ft 0 kts 236°
2026-04-19 21:20 47.61048 -52.74003 434 ft 1 kts 237°
2026-04-19 21:20 47.61047 -52.74006 434 ft 0 kts 238°
2026-04-19 21:20 47.61044 -52.74015 435 ft 2 kts 240°
2026-04-19 21:21 47.61025 -52.74031 435 ft 3 kts 236°
2026-04-19 21:21 47.61034 -52.74045 436 ft 0 kts 357°
2026-04-19 21:21 47.61036 -52.74043 436 ft 0 kts 62°